Location: Bay Ridge
(40.6340°N, 74.0146°W)
Time: 10:09:09
(UTC+00:00)

Meteor 1-27 - Pass Details

Date: 15 November 2019
Orbit: 839 x 891 km, 81.3° (Epoch: 12 December)

Event Time Altitude Azimuth Distance (km) Brightness Sun altitude
Exits shadow 09:28:14 37° 340° (NNW) 1,368 5.0 -25.4°
Maximum altitude 09:30:41 74° 263° (W) 928 4.1 -25.0°
Drops below altitude 10° 09:36:28 10° 180° (S) 2,548 6.7 -23.9°
Sets 09:38:54 0° 178° (S) 3,480 7.5 -23.4°
